Showing default

PHISAT 2, 60470

Orbit data source: Space-Track

PHISAT 2, 60470 is a UK payload satellite in SSO that was launched on Fri, 16 Aug 2024 UTC via an FALCON 9 launch vehicle from the Air Force Western Test Range (AFWTR). Payload-class satellites include a variety of spacecraft equipped with specific instruments for various scientific and technological missions. These include communications satellites like Starlink; space stations such as the ISS; scientific satellites like the Hubble; Earth observation satellites from companies like Planet Labs, Umbra, and HawkEye 360; GPS; miniature CubeSats for education and research; and military/defense satellites.

Loading next visibility...
Identifier
60470, 2024-149C
Orbit
SSO
Country
Flag of UKUK
Related business
Manufacturer
Open Cosmos
Mission
Operational Civil Technology
Bus & Motor
CUBESAT 6U, Unknown motor
Mass
9 kg wet, 9 kg dry
Launch date (UTC)
2024-08-16 (1 year ago)
Launch vehicle
FALCON 9
Launch site
Air Force Western Test Range (AFWTR)
Object type
Payload
Rocket body
Debris
Shape & HBR
Box + 2 Pan, 0.7 m
Radar Cross Section
0.143 m², Medium (>0.1 m² and < 1m²)

Expand to show TLE details & history
Last TLE update: 18 hours ago

TLE from 18 hours ago
0 PHISAT 2
1 60470U 24149C   26034.50040227  .00009634  00000-0  34575-3 0  9991
2 60470  97.3872 114.6107 0001990  44.9704 315.1697 15.28894472 81553
Epoch: 2026-02-03T12:00Z
TLE epoch observation values (Epoch: 2026-02-03T12:00:34.756Z)
Latitude
0.00001°
Longitude
160.78544°
Altitude
481.251 km
Speed
7.625 km/s
True Right ascension
07h 38m 26s
True Declination
0° 00' 00"
Sunlit
Object was in full shadow at epoch
Visualization orbit readout
Latitude
Unknown
Longitude
Unknown
Altitude
Unknown
Speed
Unknown
Apparent Right ascension
Unknown
Apparent Declination
Unknown
Sunlit
N/A
Visualization observer readout
Local Sidereal Time
07:29:39
Azimuth
Unknown
Elevation
Unknown
Doppler factor
Unknown
Orbital elements
Apogee altitude
477.433 km
Perigee altitude
474.705 km
Semi-major axis
6,854.206 km
Eccentricity
0.0002
Inclination
97.3872°
RAAN
114.6107°
Arg. of periapsis
44.9704°
True anomaly
315.15362°
Mean anomaly
315.1697°
Eccentric anomaly
315.16166°
Mean motion
3.82479 °/min
Orbital period
94.12 mins
BSTAR
0.00034575
Loading maneuver chart data...
Computing Atmospheric mass density...
Loading historical data...
Loading historical data...
Loading historical data...
Loading historical data...
Loading historical data...
Loading historical data...
Loading historical data...

Documentation

Showing up to 5 results
|